Home   Weather   Erftstadt   Past weeks

Flag for Germany Past Weather in Erftstadt, North Rhine-Westphalia, Germany — Yesterday and Last 2 Weeks

Now
41 °F

Scattered clouds.


Feels Like: 34 °F
Forecast: 40 / 47 °F
Wind: 13 mph from Southwest

Location: Noervenich

Current Time: Feb 28, 2017 at 8:57:50 am

Latest Report: Feb 28, 2017 at 8:20 am


Visibility: N/A

Pressure: 29.30 "Hg

Humidity: 66%

Dew Point: 30 °F

Location of ErftstadtLocation

Past Weather in Erftstadt — Graph

°F

Erftstadt Temperature Yesterday

Maximum temperature yesterday: 55 °F (at 4:20 pm)
Minimum temperature yesterday: 45 °F (at 7:20 pm)
Average temperature yesterday: 51 °F

High & Low Weather Summary for the Past Weeks

 TemperatureHumidityPressure
High57 °F (Feb 15, 3:20 pm)100% (Feb 21, 1:20 am)30.51 "Hg (Feb 21, 1:20 am)
Low32 °F (Feb 14, 3:20 am)46% (Feb 14, 2:20 pm)29.27 "Hg (Feb 27, 9:20 pm)
Average45 °F77%30.05 "Hg
* Reported Feb 13 7:20 am — Feb 28 7:20 am, Erftstadt, Weather by CustomWeather, © 2017

Note: Actual official high and low records may vary slightly from our data, if they occured in-between our weather recording intervals... More about our weather records

Advertising

Erftstadt Weather History for the Previous 24 Hours

Scroll right to see more
 ConditionsComfort  
Time TempWeatherWind HumidityBarometerVisibility
7:20 am
Tue, Feb 28
41 °FScattered clouds.16 mph66%29.30 "HgN/A
6:20 am41 °FPassing clouds.13 mph66%29.30 "HgN/A
5:20 am41 °FPassing clouds.14 mph66%29.27 "HgN/A
4:20 am41 °FPassing clouds.9 mph70%29.27 "HgN/A
3:20 am39 °FPassing clouds.7 mph81%29.27 "HgN/A
2:20 am43 °FPassing clouds.10 mph71%29.27 "HgN/A
1:20 am45 °FPassing clouds.15 mph66%29.27 "HgN/A
12:20 am45 °FPassing clouds.14 mph71%29.30 "HgN/A
11:20 pm
Mon, Feb 27
45 °FPassing clouds.14 mph71%29.27 "HgN/A
10:20 pm46 °FPassing clouds.13 mph71%29.30 "HgN/A
9:20 pm48 °FPassing clouds.15 mph66%29.27 "HgN/A
8:20 pm46 °FPartly cloudy.9 mph76%29.30 "HgN/A
7:20 pm45 °FPassing clouds.9 mph81%29.33 "HgN/A
6:25 pm46 °FSprinkles. Partly cloudy.23 mph82%29.33 "Hg6 mi
5:20 pm54 °FBroken clouds.13 mph58%29.30 "HgN/A
4:20 pm55 °FPartly sunny.13 mph51%29.36 "HgN/A
3:20 pm54 °FPartly sunny.10 mph58%29.42 "HgN/A
2:20 pm54 °FPartly sunny.17 mph54%29.47 "HgN/A
1:20 pm54 °FPartly sunny.10 mph58%29.50 "HgN/A
12:20 pm54 °FCool.12 mph63%29.53 "HgN/A
11:20 am54 °FCool.13 mph63%29.56 "HgN/A
10:20 am52 °FCool.10 mph67%29.59 "HgN/A
9:20 am52 °FCool.12 mph62%29.62 "HgN/A
8:20 am52 °FCool.8 mph67%29.65 "HgN/A
Weather by CustomWeather, © 2017

See weather overviewHow to use our weather pages